Location: Hormuz
(27.0871°N, 56.4580°E)
Time: 11:36:51
(UTC+04:30)

ISS - Pass Details

Date: 29 June 2021
Orbit: 419 x 421 km, 51.6° (Epoch: 04 August)

Event Time Altitude Azimuth Distance (km) Brightness Sun altitude
Exits shadow 03:40:20 19° 345° (NNW) 1,075 -1.4 -24.6°
Drops below altitude 10° 03:41:59 10° 11° (N) 1,496 -0.2 -24.4°
Sets 03:44:25 0° 28° (NNE) 2,361 1.3 -24.0°
